Location: Unspecified
(0.0000°N, 0.0000°E)
Time: 02:29:27
(UTC+00:00)

GONETS D1M 1 - Pass Details

Date: 22 May 2026
Orbit: 1435 x 1448 km, 82.5° (Epoch: 9 June)

Event Time Altitude Azimuth Distance (km) Brightness Sun altitude
Rises 04:45:52 0° 169° (S) 4,537 9.2 -16.6°
Reaches altitude 10° 04:48:54 10° 162° (SSE) 3,558 8.7 -15.9°
Maximum altitude 04:56:52 44° 93° (E) 1,914 7.8 -14.0°
Drops below altitude 10° 05:04:47 10° 24° (NNE) 3,554 9.4 -12.1°
Sets 05:07:48 0° 18° (NNE) 4,530 9.9 -11.4°
